Location: ????????
(54.6123°N, 39.2099°E)
Time: 02:09:15
(UTC+00:00)

USA 229 - Pass Details

Date: 19 May 2025
Orbit: 872 x 1339 km, 63.4° (Epoch: 10 June)

Event Time Altitude Azimuth Distance (km) Brightness Sun altitude
Exits shadow 23:20:52 - 255° (WSW) 3,465 6.0 -11.0°
Reaches altitude 10° 23:22:59 10° 260° (W) 2,718 5.5 -10.9°
Maximum altitude 23:29:14 53° 337° (NNW) 1,276 4.4 -10.4°
Drops below altitude 10° 23:36:16 10° 54° (NE) 3,050 7.3 -9.9°
Sets 23:39:14 0° 59° (ENE) 4,085 8.0 -9.7°
